EW0669 Weather Reports


Display with metric or nautical units.
time (UTC)temp
F
wind
direction
speed
MPH
gust
MPH
rain 1hr
in
rain 24hr
in
rain mn
in
humidity
%
barometer
mb
20190215225706 51 338 1.0 5.0 0.00 0.22 0.17 99 1021.0
20190215225205 51 0 2.0 5.0 0.00 0.22 0.17 99 1021.0
20190215224704 51 0 2.0 4.0 0.00 0.22 0.17 99 1021.1
20190215224207 51 315 2.0 4.0 0.00 0.22 0.17 99 1020.9
20190215223705 51 0 2.0 0.0 0.00 0.22 0.17 99 1020.8
20190215223205 50 315 0.0 0.0 0.01 0.22 0.17 99 1021.0
20190215222706 50 315 0.0 0.0 0.01 0.22 0.17 99 1020.9
20190215222207 50 315 0.0 0.0 0.02 0.22 0.17 99 1021.0
20190215221706 50 315 0.0 0.0 0.05 0.22 0.17 99 1021.0
20190215221206 49 315 0.0 1.0 0.05 0.22 0.17 99 1021.0
20190215220706 49 315 0.0 1.0 0.05 0.22 0.17 99 1021.0
20190215215707 48 315 0.0 0.0 0.06 0.22 0.17 99 1021.1
20190215215206 47 315 0.0 0.0 0.06 0.22 0.17 99 1021.2
20190215214706 46 315 0.0 2.0 0.06 0.22 0.17 99 1021.3
20190215214206 46 0 0.0 4.0 0.06 0.22 0.17 99 1021.3
20190215213706 46 0 0.0 4.0 0.06 0.22 0.17 99 1021.4
20190215213207 46 45 1.0 7.0 0.05 0.21 0.15 99 1021.5
20190215212707 46 225 1.0 9.0 0.05 0.21 0.15 99 1021.8
20190215212206 47 0 0.0 9.0 0.01 0.18 0.12 99 1021.6
20190215211706 48 338 2.0 9.0 0.01 0.18 0.12 99 1021.7
20190215211206 48 0 2.0 2.0 0.01 0.19 0.12 99 1021.7
20190215210706 49 315 0.0 1.0 0.01 0.19 0.12 99 1021.5
20190215210209 50 338 0.0 0.0 0.01 0.20 0.12 99 1021.3
20190215205707 51 0 0.0 0.0 0.00 0.20 0.11 99 1021.4
20190215205206 51 315 0.0 0.0 0.00 0.21 0.11 99 1021.5
20190215204705 51 45 0.0 0.0 0.00 0.22 0.11 99 1021.4
20190215204207 51 0 0.0 0.0 0.00 0.25 0.11 97 1021.5
20190215203206 51 45 0.0 0.0 0.00 0.27 0.11 99 1021.8
20190215202706 51 45 0.0 0.0 0.00 0.28 0.11 99 1022.1
20190215202208 51 315 0.0 0.0 0.00 0.28 0.11 99 1021.8
20190215201707 51 45 0.0 0.0 0.00 0.28 0.11 99 1021.8
20190215201205 51 0 0.0 0.0 0.01 0.28 0.11 99 1021.8
20190215200706 51 225 0.0 0.0 0.01 0.28 0.11 99 1021.7
20190215200207 51 0 0.0 0.0 0.01 0.28 0.11 99 1022.1
20190215195706 50 0 0.0 0.0 0.01 0.28 0.11 99 1022.0
20190215195206 51 0 0.0 0.0 0.01 0.28 0.11 99 1022.1
20190215194706 51 315 0.0 0.0 0.01 0.28 0.11 99 1022.0
20190215194207 50 315 0.0 0.0 0.01 0.28 0.11 99 1022.0
20190215193705 50 315 0.0 0.0 0.01 0.28 0.11 99 1021.8
20190215193205 50 315 0.0 4.0 0.01 0.28 0.11 99 1021.7
20190215192706 50 315 0.0 5.0 0.01 0.28 0.11 99 1021.8
20190215192206 51 315 0.0 5.0 0.01 0.28 0.11 99 1021.8
20190215191706 51 315 0.0 5.0 0.00 0.27 0.09 99 1021.5
20190215191206 53 338 0.0 0.0 0.00 0.27 0.09 99 1021.8
20190215190706 52 45 0.0 0.0 0.00 0.28 0.09 99 1021.1
20190215190206 52 45 0.0 0.0 0.00 0.28 0.09 99 1021.5
20190215185706 52 315 0.0 0.0 0.00 0.30 0.09 99 1021.3
20190215185206 52 315 0.0 0.0 0.00 0.32 0.09 99 1021.2
20190215184705 51 315 0.0 0.0 0.00 0.35 0.09 99 1021.4
20190215184207 51 0 0.0 0.0 0.00 0.35 0.09 99 1021.4
20190215183706 51 315 0.0 0.0 0.00 0.35 0.09 99 1021.5
20190215183206 50 338 0.0 2.0 0.00 0.35 0.09 99 1021.1
20190215182706 49 0 0.0 2.0 0.00 0.35 0.09 99 1021.1
20190215182206 48 0 0.0 2.0 0.00 0.35 0.09 99 1021.7
20190215181706 48 0 0.0 1.0 0.00 0.38 0.09 99 1021.8
20190215181206 48 315 0.0 0.0 0.00 0.40 0.09 99 1021.8
20190215180705 48 315 0.0 0.0 0.00 0.43 0.09 99 1022.0
20190215180207 48 315 0.0 0.0 0.00 0.44 0.09 99 1021.6
20190215175707 48 338 0.0 3.0 0.00 0.46 0.09 99 1021.3
20190215175206 48 338 0.0 3.0 0.00 0.47 0.09 99 1021.6
20190215174706 48 315 0.0 3.0 0.00 0.50 0.09 99 1021.3
20190215174207 49 315 0.0 0.0 0.00 0.52 0.09 99 1021.5
20190215173706 48 315 0.0 0.0 0.00 0.58 0.09 99 1021.1
20190215173206 48 338 0.0 0.0 0.00 0.58 0.09 99 1021.2
20190215172704 47 315 0.0 0.0 0.00 0.59 0.09 99 1021.1
20190215172206 47 315 0.0 0.0 0.00 0.59 0.09 99 1021.1
20190215171706 46 315 0.0 0.0 0.00 0.59 0.09 99 1021.0
20190215171206 46 315 0.0 0.0 0.00 0.59 0.09 99 1020.9
20190215170706 45 315 0.0 0.0 0.00 0.59 0.09 99 1021.1
20190215170206 45 315 0.0 0.0 0.00 0.59 0.09 99 1021.4
20190215165706 45 315 0.0 0.0 0.00 0.59 0.09 99 1021.5
20190215165206 45 315 0.0 0.0 0.00 0.59 0.09 99 1021.4
20190215164706 45 315 0.0 0.0 0.00 0.59 0.09 99 1021.4
20190215164207 45 315 0.0 0.0 0.01 0.59 0.09 99 1021.3
20190215163704 45 315 0.0 0.0 0.01 0.59 0.09 99 1021.1
20190215163206 45 315 0.0 0.0 0.01 0.59 0.09 99 1021.1
20190215162706 45 315 0.0 0.0 0.01 0.59 0.09 99 1021.0
20190215162206 45 315 0.0 2.0 0.01 0.59 0.09 99 1021.0
20190215161708 45 315 0.0 2.0 0.01 0.59 0.09 99 1021.1
20190215161208 45 315 0.0 2.0 0.01 0.59 0.09 99 1021.2
20190215160707 46 315 0.0 4.0 0.01 0.59 0.09 99 1021.1
20190215160208 46 315 0.0 6.0 0.01 0.59 0.09 99 1021.1
20190215155708 46 315 0.0 6.0 0.01 0.59 0.09 99 1021.1
20190215155207 46 315 0.0 6.0 0.01 0.59 0.09 99 1020.9
20190215154708 46 338 0.0 0.0 0.01 0.59 0.09 99 1020.9
20190215154208 45 315 0.0 0.0 0.00 0.58 0.08 99 1020.3
20190215153707 45 315 0.0 0.0 0.00 0.58 0.08 99 1020.3
20190215153208 45 315 0.0 0.0 0.00 0.58 0.08 99 1020.3
20190215152707 45 315 0.0 0.0 0.00 0.58 0.08 99 1020.3
20190215152209 45 315 0.0 0.0 0.00 0.58 0.08 99 1020.2
20190215151708 45 315 0.0 0.0 0.00 0.58 0.08 99 1020.2
20190215151208 45 315 0.0 0.0 0.00 0.58 0.08 99 1020.1
20190215150708 45 315 0.0 0.0 0.00 0.58 0.08 99 1020.0
20190215150208 45 315 0.0 0.0 0.00 0.58 0.08 99 1020.0
20190215145706 45 315 0.0 0.0 0.00 0.58 0.08 99 1020.1
20190215145207 45 315 0.0 0.0 0.00 0.58 0.08 99 1020.2
20190215144708 45 315 0.0 0.0 0.00 0.58 0.08 99 1020.2
20190215144208 45 315 0.0 0.0 0.00 0.58 0.08 99 1020.2
20190215143708 45 315 0.0 0.0 0.00 0.58 0.08 99 1020.0
20190215143209 45 315 0.0 0.0 0.00 0.59 0.08 99 1020.0
20190215142708 45 315 0.0 0.0 0.00 0.59 0.08 99 1020.0
20190215142209 45 315 0.0 0.0 0.00 0.59 0.08 99 1020.0
20190215141708 45 315 0.0 0.0 0.00 0.59 0.08 99 1019.9
20190215141207 45 315 0.0 0.0 0.00 0.60 0.08 99 1020.0
20190215140707 45 315 0.0 0.0 0.00 0.61 0.08 99 1020.0
20190215140209 45 315 0.0 0.0 0.00 0.61 0.08 99 1020.0
20190215135707 45 315 0.0 0.0 0.00 0.63 0.08 99 1020.1
20190215135207 45 315 0.0 0.0 0.00 0.63 0.08 99 1020.0
20190215134707 45 315 0.0 0.0 0.00 0.63 0.08 99 1019.9
20190215134209 45 315 0.0 0.0 0.00 0.63 0.08 99 1019.8
20190215133707 45 315 0.0 0.0 0.00 0.63 0.08 99 1019.8
20190215133208 45 315 0.0 0.0 0.00 0.63 0.08 99 1019.8
20190215132707 45 315 0.0 0.0 0.00 0.63 0.08 99 1019.8
20190215132208 45 315 0.0 0.0 0.00 0.63 0.08 99 1019.9
20190215131709 45 315 0.0 0.0 0.00 0.63 0.08 99 1019.8
20190215131208 46 315 0.0 0.0 0.00 0.63 0.08 99 1019.7
20190215130707 46 315 0.0 0.0 0.00 0.63 0.08 99 1019.5
20190215130209 46 315 0.0 0.0 0.00 0.63 0.08 99 1019.6
20190215125706 46 315 0.0 0.0 0.00 0.63 0.08 99 1019.6
20190215125208 46 315 0.0 0.0 0.00 0.63 0.08 99 1019.4
20190215124707 46 315 0.0 0.0 0.00 0.63 0.08 99 1019.5
20190215124206 46 315 0.0 0.0 0.00 0.63 0.08 99 1019.3
20190215123706 46 315 0.0 0.0 0.00 0.63 0.08 99 1019.5
20190215123206 46 315 0.0 0.0 0.00 0.63 0.08 99 1019.5
20190215122706 46 315 0.0 0.0 0.00 0.63 0.08 99 1019.3
20190215122204 47 315 0.0 0.0 0.00 0.63 0.08 99 1019.2
20190215121706 47 315 0.0 0.0 0.00 0.63 0.08 99 1019.2
20190215121205 47 315 0.0 0.0 0.00 0.63 0.08 99 1019.3
20190215120706 47 315 0.0 0.0 0.01 0.67 0.08 99 1019.3
20190215120204 47 315 0.0 0.0 0.01 0.67 0.08 99 1019.3
20190215115706 48 315 0.0 0.0 0.01 0.67 0.08 99 1019.2
20190215115206 48 315 0.0 0.0 0.01 0.67 0.08 99 1019.2
20190215114706 48 315 0.0 0.0 0.01 0.67 0.08 99 1019.1
20190215114204 48 315 0.0 0.0 0.01 0.67 0.08 99 1019.0
20190215113704 48 315 0.0 0.0 0.01 0.69 0.08 99 1019.0
20190215112707 49 315 0.0 2.0 0.01 0.69 0.08 99 1019.0
20190215112204 49 338 0.0 2.0 0.01 0.69 0.08 99 1019.0
20190215111706 49 315 0.0 2.0 0.01 0.70 0.08 99 1019.0
20190215111206 49 23 0.0 0.0 0.00 0.69 0.07 99 1019.0
20190215110706 49 135 0.0 0.0 0.00 0.69 0.07 99 1018.8
20190215105706 49 135 0.0 0.0 0.00 0.70 0.07 99 1018.8
20190215105206 49 135 0.0 0.0 0.00 0.71 0.07 99 1018.9
20190215104706 49 135 0.0 0.0 0.00 0.72 0.07 99 1019.1
20190215104206 49 45 0.0 0.0 0.00 0.73 0.07 99 1019.2
20190215103706 49 45 0.0 0.0 0.00 0.77 0.07 99 1019.3
20190215103206 49 45 0.0 0.0 0.00 0.77 0.07 99 1019.2
20190215102706 49 0 0.0 0.0 0.00 0.78 0.07 99 1019.3
20190215102207 49 0 0.0 0.0 0.00 0.79 0.07 99 1019.1
20190215101706 49 0 0.0 0.0 0.00 0.80 0.07 99 1019.3
20190215101204 49 0 0.0 0.0 0.00 0.83 0.07 99 1019.0
20190215100706 49 0 0.0 0.0 0.01 0.92 0.07 99 1019.0
20190215100206 49 0 0.0 0.0 0.01 0.94 0.07 99 1018.9
20190215095706 49 0 0.0 0.0 0.01 0.94 0.07 99 1018.8
20190215095205 49 0 0.0 0.0 0.01 0.94 0.07 99 1018.9
20190215094704 49 0 0.0 0.0 0.01 0.94 0.07 99 1018.9
20190215094208 49 0 0.0 0.0 0.01 0.94 0.07 99 1018.9
20190215093706 49 0 0.0 0.0 0.01 0.94 0.07 99 1018.7
20190215093205 50 0 0.0 0.0 0.02 0.94 0.07 99 1018.8
20190215092706 50 0 0.0 0.0 0.02 0.94 0.07 99 1018.7
20190215092206 50 0 0.0 0.0 0.02 0.94 0.07 99 1018.7
20190215091706 50 0 0.0 0.0 0.04 0.94 0.07 99 1018.8
20190215091206 50 0 0.0 0.0 0.05 0.94 0.07 99 1018.9
20190215090706 49 315 0.0 0.0 0.06 0.93 0.06 99 1018.7
20190215090206 49 315 0.0 5.0 0.06 0.93 0.06 99 1018.6
20190215085706 49 45 0.0 5.0 0.08 0.93 0.06 99 1018.5
20190215085206 49 0 0.0 5.0 0.09 0.93 0.06 99 1018.4
20190215084706 49 0 0.0 3.0 0.11 0.93 0.06 99 1018.5
20190215084206 49 0 0.0 2.0 0.11 0.93 0.06 99 1018.3
20190215083706 49 315 0.0 2.0 0.09 0.92 0.05 99 1018.2
20190215083206 49 0 0.0 3.0 0.09 0.92 0.05 99 1018.1
20190215082706 49 315 0.0 4.0 0.09 0.92 0.05 99 1018.0
20190215082208 49 0 0.0 4.0 0.09 0.92 0.04 99 1017.8
20190215081708 49 315 0.0 4.0 0.09 0.91 0.04 99 1017.9
20190215081206 49 0 0.0 8.0 0.08 0.90 0.02 99 1017.9
20190215080706 50 23 2.0 8.0 0.06 0.87 0.00 99 1018.0
20190215080207 50 23 2.0 5.0 0.05 0.86 0.86 99 1017.8
20190215075706 50 45 0.0 5.0 0.02 0.84 0.84 99 1017.4
20190215075206 50 135 0.0 5.0 0.02 0.84 0.84 99 1017.4
20190215074706 50 315 0.0 3.0 0.01 0.84 0.83 99 1017.2
20190215074204 51 315 0.0 6.0 0.01 0.85 0.83 99 1017.3
20190215073706 51 315 0.0 6.0 0.01 0.85 0.83 99 1017.5
20190215073208 51 45 0.0 8.0 0.01 0.85 0.83 99 1017.3
20190215072706 51 45 0.0 8.0 0.01 0.85 0.83 99 1017.2
20190215072207 51 45 0.0 8.0 0.00 0.84 0.81 99 1017.5
20190215071706 51 315 2.0 4.0 0.00 0.85 0.81 99 1017.3
20190215071206 51 270 0.0 7.0 0.00 0.85 0.81 99 1017.4
20190215070706 50 180 0.0 7.0 0.00 0.85 0.81 99 1017.1
20190215070207 50 180 0.0 7.0 0.00 0.85 0.81 99 1017.5
20190215065706 50 45 1.0 0.0 0.00 0.85 0.81 99 1017.3
20190215065206 50 270 0.0 3.0 0.00 0.85 0.81 99 1017.3
20190215064706 50 315 0.0 3.0 0.00 0.86 0.81 99 1017.3
20190215064206 50 0 0.0 3.0 0.00 0.86 0.81 99 1017.3
20190215063706 49 315 0.0 3.0 0.00 0.86 0.81 99 1017.3
20190215063206 49 225 0.0 3.0 0.00 0.86 0.81 99 1017.4
20190215062705 49 0 0.0 3.0 0.00 0.86 0.81 99 1017.4
20190215062206 49 90 0.0 4.0 0.00 0.86 0.81 99 1017.4
20190215061706 49 135 0.0 4.0 0.00 0.86 0.81 99 1017.4
20190215061206 49 270 0.0 1.0 0.00 0.86 0.81 99 1017.3
20190215060706 48 270 0.0 0.0 0.00 0.86 0.81 99 1017.4
20190215060207 48 270 0.0 0.0 0.00 0.86 0.81 99 1017.5
20190215055707 48 270 0.0 0.0 0.00 0.86 0.81 99 1017.5
20190215055206 48 180 0.0 0.0 0.00 0.86 0.81 99 1017.4
20190215054706 48 270 0.0 1.0 0.00 0.86 0.81 99 1017.5
20190215054207 48 270 0.0 1.0 0.00 0.87 0.81 99 1017.3
20190215053706 48 270 0.0 1.0 0.00 0.89 0.81 99 1016.9
20190215053206 48 270 0.0 1.0 0.00 0.91 0.81 99 1016.8
20190215052706 48 270 0.0 3.0 0.00 0.91 0.81 99 1016.9
20190215052207 48 225 0.0 3.0 0.00 0.91 0.81 99 1016.6
20190215051706 48 180 0.0 3.0 0.00 0.91 0.81 99 1016.5
20190215051205 48 315 1.0 0.0 0.00 0.92 0.81 99 1016.5
20190215050706 48 270 0.0 1.0 0.00 0.93 0.81 99 1016.5
20190215050206 48 270 0.0 1.0 0.00 0.93 0.81 99 1016.3
20190215045706 48 270 0.0 2.0 0.00 0.94 0.81 99 1016.1
20190215045205 48 0 0.0 3.0 0.00 0.94 0.81 99 1016.2
20190215044705 48 270 0.0 3.0 0.00 0.96 0.81 99 1016.1
20190215044207 48 0 0.0 3.0 0.00 0.97 0.81 99 1016.0
20190215043706 48 315 0.0 0.0 0.00 0.97 0.81 99 1016.1
20190215043206 49 315 0.0 0.0 0.00 0.97 0.81 99 1016.0
20190215042707 49 180 0.0 0.0 0.00 0.97 0.81 99 1016.0
20190215042206 49 315 0.0 3.0 0.00 0.98 0.81 99 1016.0
20190215041706 49 315 0.0 3.0 0.00 0.98 0.81 99 1016.0
20190215041206 49 0 0.0 4.0 0.00 0.98 0.81 99 1015.7
20190215040705 50 0 0.0 5.0 0.00 0.99 0.81 99 1015.7
20190215040207 50 0 2.0 5.0 0.00 0.99 0.81 99 1015.7
20190215035706 50 315 2.0 6.0 0.00 1.00 0.81 99 1015.7
20190215035206 50 315 2.0 7.0 0.00 1.00 0.81 99 1015.7
20190215034706 50 315 2.0 7.0 0.00 1.00 0.81 99 1015.8
20190215034207 50 315 2.0 4.0 0.00 1.00 0.81 99 1015.6
20190215033706 49 0 2.0 2.0 0.00 1.00 0.81 99 1015.5
20190215033206 49 315 0.0 3.0 0.00 1.00 0.81 99 1015.5
20190215032707 49 315 0.0 3.0 0.00 1.00 0.81 99 1015.2
20190215032206 49 270 0.0 4.0 0.00 1.00 0.81 99 1015.3
20190215031706 49 0 0.0 4.0 0.00 1.02 0.81 99 1015.4
20190215031206 49 315 0.0 1.0 0.00 1.02 0.81 99 1015.4
20190215030706 48 45 0.0 0.0 0.00 1.02 0.81 99 1015.3
20190215030207 48 45 0.0 0.0 0.00 1.02 0.81 99 1015.1
20190215025706 49 315 0.0 0.0 0.00 1.02 0.81 99 1015.1
20190215025206 49 315 0.0 0.0 0.00 1.03 0.81 99 1014.8
20190215024705 49 315 0.0 0.0 0.00 1.03 0.81 99 1014.6
20190215024206 49 338 0.0 0.0 0.00 1.03 0.81 99 1014.5
20190215023706 49 315 0.0 0.0 0.00 1.03 0.81 99 1014.4
20190215023206 49 315 0.0 0.0 0.00 1.03 0.81 99 1014.4
20190215022706 49 315 0.0 0.0 0.00 1.03 0.81 99 1014.4
20190215022207 49 0 0.0 0.0 0.00 1.03 0.81 99 1014.1
20190215021708 49 315 0.0 0.0 0.00 1.03 0.81 99 1013.9
20190215021206 50 248 0.0 0.0 0.00 1.03 0.81 99 1013.9
20190215020706 50 315 0.0 0.0 0.00 1.03 0.81 99 1013.9
20190215020207 50 315 0.0 0.0 0.00 1.03 0.81 99 1013.7
20190215015705 50 315 0.0 0.0 0.00 1.03 0.81 99 1013.6
20190215015206 51 338 0.0 0.0 0.00 1.03 0.81 99 1013.3
20190215014704 51 338 0.0 0.0 0.00 1.03 0.81 99 1013.2
20190215014207 51 270 0.0 0.0 0.00 1.03 0.81 99 1013.1
20190215013706 51 270 0.0 0.0 0.00 1.03 0.81 99 1013.0
20190215013206 51 270 0.0 0.0 0.00 1.03 0.81 99 1012.8
20190215012704 51 315 0.0 2.0 0.00 1.03 0.81 99 1012.7
20190215012206 51 315 0.0 3.0 0.00 1.03 0.81 99 1012.7
20190215011706 51 0 0.0 3.0 0.00 1.03 0.81 99 1012.8
20190215011205 51 315 0.0 5.0 0.00 1.03 0.81 99 1012.7
20190215010706 52 315 0.0 5.0 0.00 1.03 0.81 99 1012.5
20190215010207 52 315 0.0 5.0 0.00 1.03 0.81 99 1012.4
20190215005706 52 0 0.0 0.0 0.00 1.03 0.81 99 1012.3
20190215005207 52 248 0.0 0.0 0.00 1.03 0.81 99 1012.2
20190215004706 52 315 0.0 0.0 0.00 1.03 0.81 99 1011.9
20190215004207 52 315 0.0 0.0 0.00 1.03 0.81 99 1011.8
20190215003706 52 315 0.0 4.0 0.00 1.03 0.81 99 1011.7
20190215003207 52 315 0.0 4.0 0.00 1.03 0.81 99 1011.4
20190215002706 52 315 0.0 4.0 0.00 1.03 0.81 99 1011.3
20190215002206 52 338 0.0 4.0 0.00 1.03 0.81 99 1011.0
20190215001704 52 0 0.0 3.0 0.00 1.03 0.81 99 1011.2
20190215001204 52 315 0.0 4.0 0.00 1.03 0.81 99 1011.0
20190215000707 53 0 2.0 4.0 0.00 1.03 0.81 99 1011.1
20190215000207 53 0 2.0 4.0 0.00 1.03 0.81 99 1010.9
20190214235706 53 315 2.0 4.0 0.00 1.03 0.81 99 1011.0
20190214235207 53 315 2.0 5.0 0.00 1.03 0.81 99 1010.8
20190214234706 53 0 0.0 5.0 0.00 1.03 0.81 99 1010.7
20190214234207 53 0 0.0 5.0 0.00 1.03 0.81 99 1010.7
20190214233706 53 0 0.0 5.0 0.00 1.03 0.81 99 1010.8
20190214233206 53 0 0.0 5.0 0.00 1.03 0.81 99 1010.8
20190214232706 53 315 2.0 5.0 0.00 1.03 0.81 99 1010.5
20190214232207 54 338 0.0 0.0 0.00 1.03 0.81 99 1010.5
20190214231707 54 338 0.0 0.0 0.00 1.03 0.81 99 1010.2
20190214231206 54 315 0.0 0.0 0.00 1.03 0.81 99 1009.9
20190214230706 53 315 0.0 0.0 0.00 1.03 0.81 99 1009.9
20190214230207 53 338 0.0 0.0 0.00 1.03 0.81 99 1009.9